EHI
0 0 0 0 0 0 0 0 0 0 0 0 0 0 0 0 0 0 0 0 0 0 0 0 0 0 0 0 0 0 0 0 0 0 0 0 0 0 0 0 0 0 0
0 0 0 0 0 0 0 0 0 0 0 0 0 0 0 0 0 0 0 0 0 0 0 0 0 0 0 0 0 0 0 0 0 0 0 0 0 0 0 0 0 0 0
0 0 0 0 0 0 0 0 0 0 0 0 0 0 0 0 0 0 0 0 0 0 0 0 0 0 0 0 0 0 0 0 0 0 0 0 0 0 0 0 0 0 0
0 0 0 0 0 0 0 0 0 0 0 0 0 0 0 0 0 0 0 0 0 0 0 0 0 0 0 0 0 0 0 0 0 0 0 0 0 0 0 0 0 0 0
0 0 0 0 0 0 0 0 0 0 0 0 0 0 0 0 0 0 0 0 0 0 0 0 0 0 0 0 0 0 0 0 0 0 0 0 0 0 0 0 0 0 0
0 0 0 0 0 0 0 0 0 0 0 0 0 0 0 0 0 0 0 0 0 0 0 0 0 0 0 0 0 0 0 0 0 0 0 0 0 0 0 0 0 0 0
0 0 0 0 0 0 0 0 0 0 0 0 0 0 0 0 0 0 0 0 0 0 0 0 0 0 0 0 0 0 0 0 0 0 0 0 0 0 0 0 0 0 0
0 0 0 0 0 0 0 0 0 0 0 0 0 0 0 0 0 0 0 0 0 0 0 0 0 0 0 0 0 0 0 0 0 0 0 0 0 0 0 0 0 0 0
0 0 0 0 0 0 0 0 0 0 0 0 0 0 0 0 0 0 0 0 0 0 0 0 0 0 0 0 0 0 0 0 0 0 0 0 0 0 0 0 0 0 0
0 0 0 0 0 0 0 0 0 0 0 0 0 0 0 0 0 0 0 0 0 0 0 0 0 0 0 0 0 0 0 0 0 0 0 0 0 0 0 0 0 0 0
0 0 0 0 0 0 0 0 0 0 0 0 0 0 0 0 0 0 0 0 0 0 0 0 0 0 0 0 0 0 0 0 0 0 0 0 0 0 0 0 0 0 0
0 0 0 0 0 0 0 0 0 0 0 0 0 0 0 0 0 0 0 0 0 0 0 0 0 0 0 0 0 0 0 0 0 0 0 0 0 0 0 0 0 0 0
0 0 0 0 0 0 0 0 0 0 0 0 0 0 0 0 0 0 0 0 0 0 0 0 0 0 0 0 0 0 0 0 0 0 0 0 0 0 0 0 0 0 0
0 0 0 0 0 0 0 0 0 0 0 0 0 0 0 0 0 0 0 0 0 0 0 0 0 0 0 0 0 0 0 0 0 0 0 0 0 0 0 0 0 0 0
0 0 0 0 0 0 0 0 0 0 0 0 0 0 0 0 0 0 0 0 0 0 0 0 0 0 0 0 0 0 0 0 0 0 0 0 0 0 0 0 0 0 0
0 0 0 0 0 0 0 0 0 0 0 0 0 0 0 0 0 0 0 0 0 0 0 0 0 0 0 0 0 0 0 0 0 0 0 0 0 0 0 0 0 0 0
0 0 0 0 0 0 0 0 0 0 0 0 0 0 0 0 0 0 0 0 0 0 0 0 0 0 0 0 0 0 0 0 0 0 0 0 0 0 0 0 0 0 0
0 0 0 0 0 0 0 0 0 0 0 0 0 0 0 0 0 0 0 0 0 0 0 0 0 0 0 0 0 0 0 0 0 0 0 0 0 0 0 0 0 0 0
0 0 0 0 0 0 0 0 0 0 0 0 0 0 0 0 0 0 0 0 0 0 0 0 0 0 0 0 0 0 0 0 0 0 0 0 0 0 0 0 0 0 0
0 0 0 0 0 0 0 0 0 0 0 0 0 0 0 0 0 0 0 0 0 0 0 0 0 0 0 0 0 0 0 0 0 0 0 0 0 0 0 0 0 0 0
0 0 0 0 0 0 0 0 0 0 0 0 0 0 0 0 0 0 0 0 0 0 0 0 0 0 0 0 0 0 0 0 0 0 0 0 0 0 0 0 0 0 0
0 0 0 0 0 0 0 0 0 0 0 0 0 0 0 0 0 0 0 0 0 0 0 0 0 0 0 0 0 0 0 0 0 0 0 0 0 0 0 0 0 0 0
0 0 0 0 0 0 0 0 0 0 0 0 0 0 0 0 0 0 0 0 0 0 0 0 0 0 0 0 0 0 0 0 0 0 0 0 0 0 0 0 0 0 0
0 0 0 0 0 0 0 0 0 0 0 0 0 0 0 0 0 0 0 0 0 0 0 0 0 0 0 0 0 0 0 0 0 0 0 0 0 0 0 0 0 0 0
0 0 0 0 0 0 0 0 0 0 0 0 0 0 0 0 0 0 0 0 0 0 0 0 0 0 0 0 0 0 0 0 0 0 0 0 0 0 0 0 0 0 0
0 0 0 0 0 0 0 0 0 0 0 0 0 0 0 0 0 0 0 0 0 0 0 0 0 0 0 0 0 0 0 0 0 0 0 0 0 0 0 0 0 0 0
Wind_Speed
12 15 21 22 23 23 24 24 24 25 25 25 26 26 26 26 26 26 26 26 26 26 26 26 26 26 26 26 25 25 24 23 23 21 19 16 13 12 12 10 8 8 4
12 14 18 21 22 23 23 24 24 24 25 25 25 26 26 26 26 26 26 26 26 26 26 26 26 26 26 25 25 25 25 24 24 23 21 16 12 11 12 11 9 8 7
12 13 16 20 21 22 23 23 24 24 24 25 25 25 26 26 26 26 26 26 26 26 26 26 26 26 25 25 25 25 25 25 25 24 21 13 11 9 11 12 11 11 11
11 12 15 20 20 21 22 22 23 23 24 24 25 25 25 26 26 26 26 26 26 26 26 26 26 26 25 25 25 25 25 25 25 24 14 12 12 11 13 14 14 13 12
11 12 15 19 20 21 21 22 22 22 23 24 24 25 25 25 25 25 26 26 25 26 25 25 25 25 25 25 25 25 25 25 25 20 14 13 12 13 15 16 16 15 14
11 12 15 20 20 21 21 21 21 22 23 23 24 24 24 25 25 25 25 25 25 25 25 25 25 26 25 25 25 25 25 25 23 15 14 13 12 15 18 18 17 16 15
11 11 14 19 20 20 21 21 21 22 22 23 23 23 24 24 24 24 24 24 25 25 25 25 25 25 25 25 25 25 25 25 18 15 13 13 13 19 20 20 19 17 17
10 11 11 16 17 19 20 21 20 21 21 22 22 23 23 23 23 23 24 24 25 25 25 25 25 25 25 25 24 24 24 23 18 15 13 13 15 19 22 22 20 19 18
10 10 11 12 13 15 17 19 19 19 20 20 21 22 22 21 22 22 23 24 24 25 25 25 25 25 25 25 24 23 24 23 17 11 14 11 15 20 23 23 22 21 19
8 10 11 12 12 12 11 16 16 17 19 19 19 21 20 19 19 20 20 23 24 24 25 24 25 25 25 23 22 23 23 19 13 14 11 11 18 22 23 24 23 22 21
8 10 11 12 12 11 11 11 12 13 15 16 15 19 17 13 14 14 19 22 23 24 24 24 24 24 23 20 21 22 19 10 15 11 10 15 21 23 24 24 24 24 23
9 10 10 11 12 11 9 8 8 8 10 11 11 14 11 12 11 14 17 19 21 22 22 22 24 21 17 12 15 17 10 14 12 10 11 20 23 24 24 24 24 24 24
8 9 10 11 11 11 8 7 6 6 7 9 11 13 11 10 9 10 9 11 13 16 13 16 15 12 13 13 12 12 13 12 9 10 12 21 23 24 25 25 25 24 24
8 9 9 10 10 10 9 7 7 6 6 7 9 12 10 8 9 10 8 10 10 9 12 12 11 15 16 16 16 15 15 12 11 10 12 21 23 25 25 25 24 24 24
7 8 9 9 10 9 8 7 7 7 7 8 8 9 11 9 10 10 9 9 11 10 11 12 13 15 16 15 14 16 16 17 16 14 11 19 23 24 24 24 24 24 24
6 7 8 8 9 9 8 8 7 7 7 7 7 10 11 10 10 10 11 10 10 10 11 12 15 14 13 13 15 16 17 17 15 16 14 15 20 21 22 22 22 22 22
5 6 8 8 9 9 9 9 7 7 8 7 8 10 11 11 11 11 10 10 10 11 13 12 14 12 13 13 16 16 15 16 16 17 16 12 12 16 18 18 19 20 21
4 6 7 6 9 10 10 9 7 7 8 7 8 8 11 12 12 11 10 10 11 11 11 11 12 12 13 13 14 13 14 14 17 16 14 12 10 10 12 15 17 19 20
3 5 6 8 9 10 10 8 8 7 8 7 7 8 11 12 13 12 10 10 12 11 11 11 11 12 14 14 14 14 14 14 15 14 14 13 10 9 9 12 16 18 18
2 4 6 7 9 10 8 7 7 8 7 7 7 9 12 11 13 12 10 12 12 11 11 12 14 13 13 13 14 15 14 15 13 11 11 10 8 9 10 12 11 12 15
1 4 6 8 9 8 7 8 8 8 8 7 7 11 12 12 13 12 10 12 12 11 13 15 14 15 13 12 14 14 14 13 12 7 9 9 9 9 11 12 10 10 9
1 4 6 7 8 8 7 7 7 8 7 7 7 9 11 12 13 11 13 12 12 12 14 14 14 12 12 11 12 14 11 11 5 10 10 8 8 9 11 12 12 11 10
1 3 4 7 8 8 9 7 7 6 7 7 9 8 11 12 12 12 13 13 13 12 12 14 14 15 13 12 10 9 9 8 13 9 11 9 10 11 11 11 12 12 11
1 2 4 6 7 7 8 8 10 9 9 10 9 9 12 12 12 12 13 14 13 12 14 14 14 13 14 12 11 10 11 13 11 10 9 11 13 13 12 11 11 11 10
2 1 3 5 6 7 8 9 9 9 9 8 10 12 11 11 11 12 13 13 13 12 14 15 15 15 12 13 12 11 12 11 13 13 14 13 12 11 11 12 10 9 9
2 1 3 5 6 7 8 9 9 11 11 12 12 12 11 9 10 12 13 13 14 13 14 15 15 16 14 15 13 11 11 11 11 11 13 14 13 12 13 11 10 8 7
Wind_Direction
351 349 354 3 10 13 15 16 16 17 16 15 15 14 13 12 11 10 9 7 5 4 3 2 0 359 358 357 356 353 351 351 348 344 335 323 311 308 309 304 291 269 261
346 351 358 8 12 14 16 16 16 16 16 15 14 13 12 10 9 9 7 5 4 2 1 360 358 356 355 355 353 351 349 348 347 344 334 314 296 298 302 301 291 289 293
359 357 2 12 14 16 16 16 16 16 16 15 14 13 11 9 8 8 6 4 3 1 360 358 356 354 353 352 350 348 347 346 344 339 324 311 308 301 302 299 291 279 272
9 4 9 13 16 17 17 17 17 16 16 14 13 12 10 9 7 7 5 3 2 0 358 357 355 352 351 349 347 346 345 344 342 332 321 322 315 314 310 302 294 283 271
20 14 13 15 18 19 18 17 17 16 16 14 12 11 10 8 6 5 3 1 0 359 357 355 353 351 349 347 345 344 343 342 337 324 325 322 314 318 316 307 298 288 276
27 20 17 18 19 20 19 17 17 16 15 13 12 10 9 6 4 4 2 360 358 357 355 354 351 349 347 345 343 342 341 341 330 326 326 320 316 324 320 312 303 291 279
29 23 20 21 20 20 20 18 17 15 15 12 10 8 7 5 3 2 0 358 357 355 354 352 349 347 345 342 340 340 339 337 327 321 320 316 315 322 319 315 308 298 285
29 23 24 23 22 21 20 19 16 15 13 11 9 6 4 2 360 360 358 356 355 353 351 349 347 345 343 340 337 337 336 333 322 315 316 309 314 322 320 316 313 307 294
31 26 23 20 20 19 20 17 14 13 11 9 7 4 1 358 357 357 355 353 351 350 348 346 345 343 340 337 334 334 332 328 312 315 311 305 319 320 317 315 311 308 304
35 29 23 22 18 11 13 16 10 9 8 5 5 2 357 354 353 352 352 349 348 347 345 342 342 339 337 333 331 331 329 317 317 315 307 308 318 315 313 311 309 308 304
40 33 24 19 16 8 5 6 2 4 4 0 1 359 354 350 350 347 347 345 345 343 341 340 339 336 334 329 329 329 322 319 317 307 304 309 312 310 309 307 306 304 301
34 30 24 18 13 6 0 356 355 359 357 359 357 355 350 346 344 342 338 340 341 340 338 338 336 334 333 328 328 326 319 318 312 306 303 308 308 307 305 304 302 300 297
37 30 24 17 11 5 356 351 352 350 351 352 355 352 345 343 338 339 336 336 337 337 338 334 332 333 329 325 319 317 315 315 308 306 302 304 304 304 303 301 298 295 293
38 28 21 14 8 0 353 347 350 348 347 349 349 350 347 341 338 338 333 333 334 333 331 329 325 325 323 320 317 314 313 310 305 302 297 300 301 301 300 297 294 292 289
38 27 17 8 4 356 349 342 347 348 346 344 345 346 347 339 336 335 329 330 329 329 327 325 323 322 319 317 314 312 310 307 303 298 296 296 297 297 296 295 293 291 288
38 24 10 4 1 352 348 346 347 345 342 341 342 344 343 338 333 329 325 324 325 326 324 320 319 317 315 314 311 310 307 304 299 299 296 294 291 292 293 293 293 292 291
40 20 10 359 354 350 348 347 343 343 341 339 340 338 341 338 331 327 321 320 323 323 320 318 317 316 313 312 310 310 306 302 300 298 295 291 289 288 288 293 297 296 293
38 18 9 356 348 350 349 344 342 340 340 338 337 335 340 337 333 326 320 319 322 319 317 317 317 317 314 312 310 309 304 300 297 296 292 287 287 291 295 298 301 300 298
40 15 3 357 349 347 343 337 336 337 338 337 337 339 340 336 334 327 320 319 322 318 315 315 317 316 313 312 310 306 302 298 295 291 289 288 288 295 300 304 305 300 298
55 15 2 355 350 344 340 335 333 338 339 339 339 341 338 335 334 328 320 322 322 316 316 317 315 313 310 310 309 305 301 292 284 283 294 294 296 303 311 311 309 304 301
67 11 2 352 351 347 344 340 337 338 336 337 337 336 334 334 332 328 324 322 321 317 317 315 315 312 312 313 310 309 301 290 279 294 303 299 301 312 313 313 310 309 305
49 9 356 351 346 348 344 334 329 324 324 326 328 330 333 332 330 327 325 322 319 316 314 315 315 310 309 314 313 313 313 306 310 325 296 292 305 316 312 311 310 308 308
66 11 350 344 339 344 340 331 328 324 323 333 335 331 331 329 327 325 323 320 316 315 312 313 312 309 309 308 304 305 305 309 323 294 302 306 317 313 309 308 306 307 307
108 13 336 335 335 341 339 338 338 334 333 334 330 324 325 326 325 324 322 319 315 313 310 310 308 304 302 301 300 292 284 290 293 302 304 308 307 306 306 305 306 303 303
140 336 325 327 332 340 340 339 335 331 329 325 326 324 326 325 324 324 322 319 316 312 309 307 305 301 297 294 294 293 289 285 278 281 294 302 304 303 305 303 298 299 304
166 264 311 322 331 339 338 338 335 331 329 327 329 327 327 324 322 325 324 319 316 313 310 307 302 298 294 291 287 284 285 285 286 287 290 297 300 303 303 298 293 296 302